This is the latest recevied weather packets stored in our database for station/object W1RCY. If no packets are shown the sender has not sent any weather packets the latest 10 day(s).
| Time | Temp. | Humidity | Pressure | Rain* | Wind** | Luminosity | Snow |
|---|---|---|---|---|---|---|---|
| 1777699956 | 3.89° C | 77% | 1010.6 hPa | 0 mm | - | 0 W/m² | - |
| 1777699654 | 3.89° C | 77% | 1010.3 hPa | 0 mm | - | 0 W/m² | - |
| 1777699351 | 3.89° C | 75% | 1010.5 hPa | 0 mm | - | 0 W/m² | - |
| 1777699049 | 3.89° C | 76% | 1010.2 hPa | 0 mm | - | 0 W/m² | - |
| 1777698748 | 3.89° C | 79% | 1010.2 hPa | 0 mm | - | 0 W/m² | - |
| 1777698443 | 3.89° C | 77% | 1010.6 hPa | 0 mm | - | 0 W/m² | - |
| 1777698140 | 3.33° C | 78% | 1010.3 hPa | 0 mm | - | 0 W/m² | - |
| 1777697837 | 3.33° C | 78% | 1010.3 hPa | 0 mm | - | 0 W/m² | - |
| 1777697534 | 3.33° C | 79% | 1010.3 hPa | 0 mm | - | 0 W/m² | - |
| 1777697230 | 3.89° C | 78% | 1010.1 hPa | 0 mm | - | 0 W/m² | - |
| 1777696927 | 3.33° C | 79% | 1010.3 hPa | 0 mm | - | 0 W/m² | - |
| 1777696625 | 3.33° C | 78% | 1010.2 hPa | 0 mm | - | 0 W/m² | - |
| 1777696322 | 3.33° C | 77% | 1010.1 hPa | 0 mm | - | 0 W/m² | - |
| 1777696021 | 3.33° C | 76% | 1010.3 hPa | 0 mm | - | 0 W/m² | - |
| 1777695719 | 3.89° C | 74% | 1010.3 hPa | 0 mm | - | 0 W/m² | - |
| 1777695416 | 3.89° C | 72% | 1010.2 hPa | 0 mm | - | 0 W/m² | - |
| 1777695113 | 3.89° C | 74% | 1010 hPa | 0 mm | - | 0 W/m² | - |
| 1777694810 | 3.33° C | 77% | 1010.2 hPa | 0 mm | - | 0 W/m² | - |
| 1777694507 | 3.89° C | 77% | 1010 hPa | 0 mm | - | 0 W/m² | - |
| 1777694203 | 3.89° C | 76% | 1010.1 hPa | 0 mm | - | 0 W/m² | - |
| 1777693900 | 3.89° C | 74% | 1010.1 hPa | 0 mm | - | 0 W/m² | - |
| 1777693598 | 3.89° C | 75% | 1010.2 hPa | 0 mm | - | 0 W/m² | - |
| 1777693296 | 3.89° C | 74% | 1009.9 hPa | 0 mm | - | 0 W/m² | - |
| 1777692994 | 3.89° C | 75% | 1010 hPa | 0 mm | - | 0 W/m² | - |
| 1777692691 | 3.89° C | 74% | 1010 hPa | 0 mm | - | 0 W/m² | - |
* Rain latest hour (hover to see other rain measurements)
** Current wind speed in m/s (hover to see current wind gust speed)